[[{"header":{"parameterUnit":"m.s-1","parameterCategory":1,"la1":30.2991,"la2":30.254,"lo1":-89.0895,"lo2":-89.0444,"dy":0.0017,"dx":0.0017,"nx":28,"ny":28,"refTime":"2023-08-01T03:00:00:Z","depth":0,"parameterNumber":2,"parameterNumberName":"U-component_of_WINDS"},"data":[0,0,0,0,0,0,0,0,0,0,0,0,0,0,0,0,0,0,0,0,0,0,0,0,0,0,0,0,0,0,0,0,0,0,0,0,0,0,0,0,0,0,0,0,0,0,0,0,0,0,0,0,0,0,0,0,0,0,0.0462,0.0462,0,0.0531,0.0532,0.0533,0.0544,0.0543,0.0543,0.0542,0.0616,0.0618,0.0621,0,0,0,0,0,0,0,0,0,0,0,0,0,0.034,0.0342,0.0462,0.0462,0.0463,0.0531,0.0532,0.0533,0.0544,0.0543,0.0543,0.0542,0.0615,0.0618,0.0621,0,0,0,0,0,0,0,0,0,0,0,0,0,0.0399,0.0342,0.0461,0.0477,0.0479,0.0531,0.0532,0.0533,0.0544,0.0543,0.0542,0.0542,0.0614,0.0618,0.0621,0.0663,0,0,0.0633,0.0635,0,0,0,0,0,0,0,0,0.0396,0.0404,0.0474,0.0476,0.0478,0.0528,0.0516,0.0577,0.0545,0.052,0.0542,0.0541,0.0587,0.0593,0.0609,0.0667,0.067,0.0633,0.0636,0.0637,0.0638,0,0,0,0,0,0,0,0.0392,0.0401,0.0489,0.0475,0.0478,0.0481,0.0488,0.0528,0.0558,0.0522,0.0523,0.0531,0.0588,0.0605,0.061,0.0671,0.0633,0.0636,0.0639,0.064,0.0768,0.0769,0,0,0,0,0,0,0.0385,0.0397,0.0487,0.0491,0.0434,0.0484,0.0492,0.0513,0.0558,0.0563,0.0531,0.0531,0.0599,0.0606,0.0613,0.0666,0.0637,0.0641,0.0643,0.0767,0.0768,0.077,0,0,0,0,0,0,0.0382,0.0392,0.0484,0.0445,0.0457,0.0487,0.051,0.0515,0.0531,0.0565,0.057,0.0542,0.0598,0.0608,0.0651,0.0668,0.0642,0.0646,0.0766,0.0767,0.0769,0.0771,0,0,0,0,0,0,0.0378,0.0391,0.0407,0.0445,0.0459,0.052,0.0511,0.0517,0.0538,0.0538,0.0577,0.0582,0.0598,0.0645,0.0655,0.0673,0.0649,0.0764,0.0767,0.0768,0.077,0.0773,0.0775,0,0,0,0,0,0.0374,0.0405,0.0408,0.0419,0.0479,0.0521,0.0529,0.0547,0.0539,0.0556,0.0577,0.0581,0.0665,0.0649,0.066,0.068,0.0763,0.0766,0.0768,0.0768,0.0772,0.0775,0,0,0,0,0,0,0.037,0.0411,0.0414,0.0458,0.0486,0.0523,0.0544,0.055,0.0581,0.058,0.06,0.0609,0.0651,0.067,0.0652,0.0724,0.0714,0.0718,0.071,0.0714,0.0716,0.0711,0.0652,0,0,0,0,0,0.0374,0.0404,0.0438,0.0474,0.0488,0.0514,0.0533,0.0544,0.0574,0.0586,0.061,0.064,0.0673,0.0694,0.0726,0.0772,0.0781,0.0791,0.0794,0.0796,0.0801,0.0827,0.0832,0.0778,0.0778,0.0778,0,0,0.0383,0.0409,0.0427,0.0474,0.0497,0.0529,0.0524,0.0557,0.0581,0.0591,0.0633,0.0652,0.0687,0.0732,0.0753,0.0748,0.0817,0.08,0.0801,0.0804,0.083,0.0835,0.084,0.078,0.0779,0.0779,0,0,0.0416,0.0438,0.0471,0.0494,0.0528,0.0545,0.0553,0.0589,0.0602,0.0644,0.0653,0.0682,0.0738,0.0762,0.0782,0.0824,0.0829,0.0834,0.0849,0.0874,0.0878,0.0882,0.0898,0.0903,0.0838,0.0838,0.0838,0,0.0423,0.047,0.0487,0.052,0.0541,0.0551,0.0585,0.0606,0.065,0.0664,0.0659,0.073,0.0753,0.0804,0.0814,0.083,0.084,0.083,0.0876,0.088,0.0884,0.09,0.0905,0.0838,0.0838,0.0838,0.0838,0,0.0478,0.051,0.0533,0.0574,0.0597,0.0631,0.0653,0.0675,0.0683,0.0701,0.0745,0.0774,0.0812,0.0825,0.0834,0.0877,0.0874,0.0872,0.0862,0.089,0.0904,0.091,0.0839,0.0838,0.0838,0.0838,0,0,0.051,0.056,0.0568,0.0587,0.0626,0.0652,0.0686,0.0723,0.0741,0.0771,0.08,0.0848,0.0846,0.0869,0.0881,0.0903,0.0935,0.0899,0.09,0.0905,0.0986,0.0987,0.0994,0.0939,0.094,0.0941,0.0983,0,0.0548,0.0609,0.0625,0.0676,0.0707,0.0717,0.0746,0.0774,0.0791,0.082,0.084,0.0873,0.0869,0.0882,0.0905,0.0927,0.0952,0.0924,0.0967,0.0969,0.0959,0.1001,0.1003,0.1042,0.0989,0.099,0.0991,0,0.0601,0.0631,0.0685,0.072,0.0734,0.076,0.0795,0.0823,0.0854,0.0866,0.089,0.09,0.0937,0.0925,0.0976,0.0956,0.0975,0.0989,0.0991,0.0996,0.0982,0.1009,0.1055,0.1061,0.1,0.0999,0.0998,0,0.062,0.0674,0.0714,0.073,0.0771,0.079,0.0808,0.0838,0.0859,0.0891,0.0905,0.094,0.0959,0.0987,0.1006,0.0995,0.1056,0.1045,0.1067,0.1067,0.108,0.1079,0.113,0.1091,0.1091,0.1091,0.1091,0,0.0661,0.0694,0.0723,0.0748,0.0785,0.0803,0.084,0.0859,0.0886,0.0915,0.0925,0.0952,0.0976,0.1006,0.1022,0.1062,0.1071,0.1082,0.1085,0.1081,0.108,0.1094,0.1092,0.1092,0.1092,0.1092,0.1091,0,0.0689,0.071,0.0754,0.0789,0.0799,0.0825,0.0856,0.088,0.0898,0.0934,0.0944,0.0972,0.1008,0.103,0.1076,0.1087,0.1132,0.1134,0.1121,0.1123,0.1144,0.1142,0.1207,0.1217,0.117,0.117,0.117,0,0.0715,0.074,0.0778,0.0798,0.0816,0.0848,0.087,0.0889,0.0911,0.0949,0.0969,0.1006,0.1036,0.1094,0.1119,0.1155,0.1158,0.1179,0.1164,0.1159,0.116,0.1158,0.1161,0.1181,0.1182,0.1182,0.1182,0,0.0758,0.0766,0.0797,0.0831,0.0856,0.0884,0.0912,0.0928,0.0952,0.0976,0.1013,0.1037,0.1084,0.1121,0.1158,0.1178,0.1185,0.1187,0.1194,0.119,0.1182,0.1187,0.1129,0.1185,0.1185,0.1185,0.1185,0.1185,0.0786,0.0809,0.0839,0.0873,0.0896,0.0922,0.0947,0.0967,0.0998,0.1037,0.1047,0.1086,0.1117,0.1168,0.1189,0.122,0.1217,0.1227,0.123,0.1232,0.1233,0.1176,0.1227,0.1227,0.1227,0.1227,0.1227,0,0.083,0.085,0.088,0.0919,0.0945,0.0948,0.0979,0.1002,0.1036,0.1064,0.1093,0.1136,0.1172,0.12,0.1236,0.1256,0.126,0.1265,0.1265,0.1269,0.1233,0.1224,0.1262,0.1262,0.1262,0.1262,0.1262,0.1262,0.0856,0.0896,0.0908,0.096,0.0979,0.1017,0.1035,0.1059,0.1082,0.1129,0.1158,0.1175,0.1204,0.1243,0.1276,0.1283,0.1297,0.1301,0.1309,0.1275,0.1272,0.1268,0.1259,0.1304,0.1304,0.1343,0.1343,0.1343]},{"header":{"parameterUnit":"m.s-1","parameterCategory":1,"la1":30.2991,"la2":30.254,"lo1":-89.0895,"lo2":-89.0444,"dy":0.0017,"dx":0.0017,"nx":28,"ny":28,"refTime":"2023-08-01T03:00:00:Z","depth":0,"parameterNumber":3,"parameterNumberName":"V-component_of_WINDS"},"data":[0,0,0,0,0,0,0,0,0,0,0,0,0,0,0,0,0,0,0,0,0,0,0,0,0,0,0,0,0,0,0,0,0,0,0,0,0,0,0,0,0,0,0,0,0,0,0,0,0,0,0,0,0,0,0,0,0,0,-1.3037,-1.3038,0,-1.3149,-1.315,-1.3152,-1.3221,-1.3221,-1.3222,-1.3222,-1.3338,-1.3341,-1.3344,0,0,0,0,0,0,0,0,0,0,0,0,0,-1.2884,-1.2887,-1.3036,-1.3038,-1.3039,-1.3149,-1.315,-1.3152,-1.3221,-1.3221,-1.3222,-1.3222,-1.3337,-1.3341,-1.3344,0,0,0,0,0,0,0,0,0,0,0,0,0,-1.2969,-1.2887,-1.3036,-1.3087,-1.3093,-1.3148,-1.315,-1.3152,-1.3221,-1.3221,-1.3222,-1.3222,-1.3336,-1.334,-1.3344,-1.3359,0,0,-1.3357,-1.3359,0,0,0,0,0,0,0,0,-1.2964,-1.2974,-1.3078,-1.3084,-1.309,-1.3171,-1.3139,-1.3222,-1.3221,-1.3172,-1.3222,-1.3223,-1.3282,-1.3291,-1.3311,-1.3364,-1.3369,-1.3357,-1.336,-1.3362,-1.3363,0,0,0,0,0,0,0,-1.2958,-1.297,-1.3081,-1.308,-1.3087,-1.3105,-1.3117,-1.3155,-1.3223,-1.3176,-1.3182,-1.3194,-1.3286,-1.3307,-1.3314,-1.3371,-1.3357,-1.3361,-1.3364,-1.3365,-1.3444,-1.3444,0,0,0,0,0,0,-1.2944,-1.2964,-1.3078,-1.3084,-1.3027,-1.3107,-1.3121,-1.3145,-1.3223,-1.3235,-1.3193,-1.3197,-1.3299,-1.3309,-1.3319,-1.3341,-1.3362,-1.3366,-1.3368,-1.3445,-1.3444,-1.3444,0,0,0,0,0,0,-1.294,-1.2953,-1.3073,-1.3026,-1.3043,-1.3109,-1.3135,-1.3147,-1.3168,-1.3236,-1.3248,-1.3202,-1.33,-1.3313,-1.3349,-1.3346,-1.3367,-1.3371,-1.3445,-1.3444,-1.3444,-1.3387,0,0,0,0,0,0,-1.2936,-1.2951,-1.2957,-1.3026,-1.3045,-1.31,-1.3135,-1.3149,-1.3175,-1.318,-1.3247,-1.3259,-1.3302,-1.3342,-1.3353,-1.3352,-1.3374,-1.3445,-1.3445,-1.3444,-1.3389,-1.3384,-1.338,0,0,0,0,0,-1.293,-1.2936,-1.2957,-1.297,-1.3053,-1.31,-1.3111,-1.316,-1.3174,-1.3181,-1.3225,-1.3257,-1.3345,-1.3345,-1.3358,-1.3359,-1.3446,-1.3445,-1.3444,-1.3391,-1.3385,-1.338,0,0,0,0,0,0,-1.2866,-1.2946,-1.297,-1.2998,-1.3042,-1.3111,-1.3121,-1.3152,-1.3192,-1.3196,-1.3255,-1.327,-1.33,-1.3333,-1.3332,-1.3378,-1.3399,-1.3401,-1.3355,-1.335,-1.3345,-1.3336,-1.3378,0,0,0,0,0,-1.2855,-1.2885,-1.2955,-1.2973,-1.2994,-1.3054,-1.3076,-1.311,-1.3157,-1.3176,-1.3223,-1.3268,-1.3306,-1.333,-1.3369,-1.3395,-1.3411,-1.3402,-1.3397,-1.3393,-1.3394,-1.3411,-1.3408,-1.3441,-1.3441,-1.3441,0,0,-1.2833,-1.2881,-1.2896,-1.2962,-1.2999,-1.303,-1.3068,-1.31,-1.3124,-1.3181,-1.3218,-1.3254,-1.3308,-1.3339,-1.3355,-1.3368,-1.3388,-1.3392,-1.3388,-1.3391,-1.341,-1.3406,-1.3403,-1.344,-1.344,-1.344,0,0,-1.2808,-1.2847,-1.2868,-1.2905,-1.2961,-1.3001,-1.3006,-1.3072,-1.3098,-1.3135,-1.3179,-1.321,-1.3274,-1.3311,-1.3339,-1.333,-1.3362,-1.3342,-1.3318,-1.3334,-1.3331,-1.3329,-1.3326,-1.3325,-1.3342,-1.3342,-1.3342,0,-1.2773,-1.2822,-1.2874,-1.2903,-1.2931,-1.2985,-1.3006,-1.304,-1.3106,-1.3125,-1.3138,-1.3221,-1.3261,-1.3302,-1.33,-1.3321,-1.3329,-1.3333,-1.3327,-1.3326,-1.3325,-1.3323,-1.3321,-1.3339,-1.3339,-1.334,-1.334,0,-1.2776,-1.2809,-1.2819,-1.2882,-1.2911,-1.2936,-1.2993,-1.3017,-1.3049,-1.3088,-1.3126,-1.3177,-1.3228,-1.3241,-1.3272,-1.3287,-1.3293,-1.3316,-1.3338,-1.3318,-1.3317,-1.3317,-1.3335,-1.3336,-1.3337,-1.3338,0,0,-1.2713,-1.2805,-1.2808,-1.2837,-1.2905,-1.2931,-1.296,-1.3009,-1.3028,-1.3073,-1.3099,-1.3153,-1.3175,-1.3206,-1.3243,-1.3257,-1.3248,-1.3279,-1.3281,-1.3271,-1.3268,-1.3249,-1.3247,-1.327,-1.327,-1.327,-1.3263,0,-1.2698,-1.275,-1.2799,-1.2834,-1.2866,-1.2918,-1.2943,-1.2988,-1.3025,-1.3059,-1.3101,-1.3138,-1.3165,-1.3184,-1.32,-1.3245,-1.3248,-1.3247,-1.3294,-1.3295,-1.3278,-1.3247,-1.3227,-1.3218,-1.3263,-1.3263,-1.3263,0,-1.2687,-1.2729,-1.2767,-1.2832,-1.2847,-1.2869,-1.2919,-1.2949,-1.3002,-1.3028,-1.3064,-1.3103,-1.3136,-1.3156,-1.3204,-1.3202,-1.3225,-1.325,-1.3251,-1.3257,-1.3277,-1.3251,-1.3217,-1.3215,-1.3263,-1.3263,-1.3263,0,-1.2636,-1.2703,-1.2734,-1.2758,-1.2835,-1.2849,-1.2882,-1.2935,-1.2962,-1.3006,-1.3024,-1.3072,-1.3098,-1.3134,-1.3185,-1.3195,-1.3228,-1.3252,-1.3251,-1.325,-1.3255,-1.3253,-1.3222,-1.327,-1.327,-1.327,-1.327,0,-1.2614,-1.2635,-1.2713,-1.2732,-1.2758,-1.2815,-1.2839,-1.2877,-1.2924,-1.2952,-1.3001,-1.3027,-1.3094,-1.3128,-1.3168,-1.3202,-1.3213,-1.3236,-1.3247,-1.3231,-1.3228,-1.3246,-1.3248,-1.327,-1.327,-1.327,-1.327,0,-1.256,-1.2614,-1.2651,-1.2722,-1.274,-1.2756,-1.2817,-1.2838,-1.288,-1.2915,-1.2927,-1.2991,-1.3034,-1.309,-1.315,-1.3177,-1.3206,-1.3223,-1.3188,-1.3194,-1.319,-1.3189,-1.3169,-1.3169,-1.3217,-1.3216,-1.3216,0,-1.2542,-1.256,-1.2632,-1.2654,-1.2686,-1.2721,-1.2749,-1.2807,-1.2834,-1.2896,-1.291,-1.2957,-1.2997,-1.3064,-1.3117,-1.3164,-1.3181,-1.3171,-1.3189,-1.3173,-1.3181,-1.3179,-1.3181,-1.3166,-1.3165,-1.3164,-1.3164,0,-1.2504,-1.253,-1.2568,-1.2615,-1.2647,-1.2688,-1.2731,-1.2746,-1.2813,-1.2842,-1.2886,-1.2917,-1.298,-1.3026,-1.308,-1.3115,-1.3151,-1.3158,-1.3161,-1.3145,-1.3124,-1.3135,-1.3175,-1.3158,-1.3159,-1.3159,-1.3159,-1.316,-1.2467,-1.2486,-1.254,-1.2581,-1.262,-1.2659,-1.2682,-1.2727,-1.2765,-1.282,-1.2852,-1.2895,-1.2949,-1.3026,-1.306,-1.3095,-1.3109,-1.3112,-1.3113,-1.3112,-1.3107,-1.3119,-1.3105,-1.3106,-1.3106,-1.3106,-1.3106,0,-1.2431,-1.2469,-1.2507,-1.2565,-1.2598,-1.2629,-1.2679,-1.2704,-1.2741,-1.2788,-1.2827,-1.2879,-1.2925,-1.2982,-1.3031,-1.3049,-1.3067,-1.306,-1.3059,-1.3067,-1.3093,-1.3085,-1.3045,-1.3045,-1.3045,-1.3045,-1.3045,-1.3045,-1.2416,-1.2449,-1.2482,-1.2535,-1.2573,-1.2615,-1.2641,-1.2678,-1.2716,-1.2771,-1.2809,-1.2846,-1.2898,-1.2952,-1.2996,-1.3012,-1.3027,-1.3016,-1.3036,-1.3059,-1.3065,-1.307,-1.3063,-1.3019,-1.3019,-1.3007,-1.3007,-1.3007]}]]